Regional Weather Roundup
Issued by NWS Charleston, SC

Current Version | Previous Version | Graphics & Text | Print | Product List | Glossary On
Versions: 1 2 3 4 5 6 7 8 9 10 11 12 13 14 15 16 17 18 19 20 21 22 23 24 25 26 27 28 29 30 31 32 33 34 35 36 37 38 39 40 41 42 43 44 45 46 47 48 49 50
000 ASUS42 KCHS 200710 RWRCHS REGIONAL WEATHER ROUNDUP NATIONAL WEATHER SERVICE CHARLESTON SC 300 AM EDT MON OCT 20 2014 NOTE: "FAIR" INDICATES FEW OR NO CLOUDS BELOW 12,000 FEET WITH NO SIGNIFICANT WEATHER AND/OR OBSTRUCTIONS TO VISIBILITY. NOT ALL STATIONS ARE QUALITY CONTROLLED BY THE NATIONAL WEATHER SERVICE. USE DATA WITH CAUTION...ESPECIALLY DEWPOINT OBSERVATIONS. SCZ027-030-031-034>040-042>050-200800- ...SOUTH CAROLINA... CITY SKY/WX TMP DP RH WIND PRES REMARKS N CHARLESTON FAIR 53 50 89 CALM 30.13S WATERFRONT PRK N/A 63 N/A N/A N6 N/A FORT JOHNSON NOT AVBL JOHNS ISLAND MOSUNNY 55 54 94 CALM 30.13S PINOPOLIS N/A 59 50 72 SE2 30.04F MONCKS CORNER FAIR 48 48 100 CALM 30.13S SUMMERVILLE FAIR 46 46 100 CALM 30.14S BEAUFORT MCAS FAIR 52 50 93 CALM 30.13S BEAUFORT ARPT FAIR 54 54 100 CALM 30.12S HILTON HEAD IS NOT AVBL GEORGETOWN NOT AVBL WALTERBORO FAIR 46 N/A N/A CALM 30.14S ORANGEBURG FAIR 48 45 89 CALM 30.13S BARNWELL FAIR 46 45 93 CALM 30.13S AIKEN FAIR 45 45 100 CALM 30.15F MANNING FAIR 45 N/A N/A CALM 30.13F KINGSTREE NOT AVBL COLUMBIA FAIR 47 44 90 CALM 30.12F SUMTER FAIR 47 45 93 CALM 30.12S FLORENCE FAIR 48 44 86 CALM 30.14S MYRTLE BEACH FAIR 54 45 71 N3 30.14S N MYRTLE BEACH FAIR 48 45 89 NE3 30.14R $$ GAZ063-065-086>088-099>101-113>116-118-119-134-136>141-150-200800- ...GEORGIA... CITY SKY/WX TMP DP RH WIND PRES REMARKS SAVANNAH ARPT FAIR 54 49 83 CALM 30.13S HUNTER AAF FAIR 53 52 97 CALM 30.10F FORT STEWART FAIR 49 47 93 CALM 30.11S STATESBORO NOT AVBL SYLVANIA FAIR 51 50 98 CALM 30.13S CLAXTON FAIR 46 46 100 CALM 30.13S THOMSON FAIR 47 47 100 CALM 30.16S AUGUSTA-BUSH FAIR 43 42 97 CALM 30.12S AUGUSTA-DANIEL FAIR 54 49 83 CALM 30.12F SWAINSBORO FAIR 52 52 100 MISG 30.13S VIDALIA FAIR 52 52 100 CALM 30.12S ALMA FAIR 48 47 96 CALM 30.11F FOG WAYCROSS FAIR 54 54 100 CALM 30.10F JESUP FAIR 50 50 100 CALM 30.11F BRUNSWICK N/A 52 50 93 CALM 30.11F VSB 1/2 SAINT SIMONS FAIR 54 54 100 CALM 30.09F $$ SCZ027-028-034-036>038-045-046-048>050-GAZ119-141-200800- ...LAKE AND SUPPLEMENTAL COASTAL OBSERVATIONS... STATION/POSITION TIME TEMP WIND PRES WAVE SWELL AIR SEA DIR/SP/G HT/PER HT/PER/DIR (UTC) (F) (DEG/KT/KT) (MB) (FT/S) (FT/S/D) UPR LAKE MARION NOT AVBL WINYAH BAY 0600 53 320/ 3 1020.0S LAKE MURRAY 0600 58 80/ 2/ 4 1019.6S ACE BASIN NERRS 0600 52 CALM 1020.0S FORT PULASKI 0700 65 120/ 3/ 4 1020.0F SAPELO ISLAND NOT AVBL $$ ANZ835-935-AMZ111-154-330-350-352-354-374-450-454-472-200800- ...C-MAN AND BUOY OBSERVATIONS... STATION/POSITION TIME TEMP WIND PRES WAVE SWELL AIR SEA DIR/SP/G HT/PER HT/PER/DIR (UTC) (F) (DEG/KT/KT) (MB) (FT/S) (FT/S/D) FOLLY BEACH CMAN 0600 61 350/ 5/ 6 1020.8R BUOY 41004 0700 69 80 90/ 6/ 10 1019.6F 2/ 9 2/ 9 BUOY 41008 0700 71 76 110/ 8/ 10 1019.1F 3/ 7 2/ 70/ 7 5E ST. MARYS GA 0700 77 N/A 3/ 6 2/ 80/11 FRYING PAN BUOY 0700 66 75 70/ 6/ 8 1021.1R 2/11 2/ 90/11 BUOY 41025 0700 61 360/ 8/ 14 1020.2F 4/11 3/ 50/11 CAPE LOOKOUT NC 0600 60 350/ 6/ 6 1020.5R BUOY 41002 0642 70 80 30/ 12/ 16 1019.3F 5/ 7 BUOY 41010 0700 76 81 40/ 12/ 16 1017.1F 5/ 8 5/ 10/ 8 BUOY 41012 NOT AVBL ST AUGUSTINE FL 0700 75 80/ 8/ 9 1018.1F CAPERS NEARSHORE 0600 66 CALM / 4 N/A FRIPP NEARSHORE NOT AVBL $$

USA.gov is the U.S. government's official web portal to all federal, state and local government web resources and services.